User: anonymous   Login
Location: Columbia
(38.9520°N, 92.3340°W)
Time: 22:37:41
(UTC-06:00)
Language:

SJ-11-01 - Orbit

View from above orbital plane
View from above orbital plane
View from above satellite
View from above satellite

Ground track
Ground track

The orbit data is extracted from the following two-line orbital elements,

1 36088U 09061A   16043.71906526  .00000281  00000-0  68568-4 0  9999
2 36088  98.2069  92.6061 0011640   3.6168 356.5107 14.59788617333081
Epoch (UTC): 12 February 2016 17:15:27
Eccentricity: 0.0011640
inclination: 98.2069°
perigee height: 685 km
apogee height: 702 km
right ascension of ascending node: 92.6061°
argument of perigee: 3.6168°
revolutions per day: 14.59788617
mean anomaly at epoch: 356.5107°
orbit number at epoch: 33308

The dashed part of the orbit path shows where the satellite is in the earth's shadow,  

DLR